THOR ABLESTAR DEB, 262

Orbit data source: Space-Track

THOR ABLESTAR DEB, 262 is space debris in LEO originally from a launch on Thu, 29 Jun 1961 UTC launched from the Air Force Eastern Test Range (AFETR). Debris objects in space refer to the collection of defunct objects orbiting the Earth. Examples of debris include non-operational satellites, rocket bodies, and fragments generated from explosions, collisions, or faulty payload assembly.

Loading next visibility...
Identifier
262, 1961-015CJ
Orbit
LEO
Country
Flag of USUS
Related business
Manufacturer
Unknown
Mission
Spacecraft
Bus & Motor
Unknown
Mass
Unknown
Launch date (UTC)
1961-06-29 (64 years ago)
Launch vehicle
Unknown
Launch site
Air Force Eastern Test Range (AFETR)
Object type
Payload
Rocket body
Debris
Shape & HBR
Unknown
Radar Cross Section
Small (<0.1 m²)

Expand to show TLE details & history
Last TLE update: 19 hours ago

TLE from 19 hours ago
0 THOR ABLESTAR DEB
1 00262U 61015CJ  25258.97350940  .00003055  00000-0  67556-3 0  9997
2 00262  66.4618 104.1622 0069966 278.8968  80.4225 14.57188944318513
Epoch: 2025-09-15T23:21Z
TLE epoch observation values (Epoch: 2025-09-15T23:21:51.212Z)
Latitude
-0.00005°
Longitude
118.52832°
Altitude
696.474 km
Speed
7.513 km/s
True Right ascension
06h 56m 38s
True Declination
0° 00' 00"
Sunlit
Object was in daylight at epoch
Visualization orbit readout
Latitude
Unknown
Longitude
Unknown
Altitude
Unknown
Speed
Unknown
Apparent Right ascension
Unknown
Apparent Declination
Unknown
Sunlit
N/A
Visualization observer readout
Local Sidereal Time
10:53:26
Azimuth
Unknown
Elevation
Unknown
Doppler factor
Unknown
Orbital elements
Apogee altitude
750.175 km
Perigee altitude
651.12 km
Semi-major axis
7,078.785 km
Eccentricity
0.007
Inclination
66.4618°
RAAN
104.1622°
Arg. of periapsis
278.8968°
True anomaly
81.2142°
Mean anomaly
80.4225°
Eccentric anomaly
80.81824°
Mean motion
3.64422 °/min
Orbital period
98.79 mins
BSTAR
0.00067556
Loading maneuver chart data...
Computing Atmospheric mass density...

Documentation

Showing up to 5 results
|